Regional Weather Roundup
Issued by NWS

Home | Current Version | Previous Version | Text Only | Print | Product List | Glossary On
Versions: 1 2 3 4 5 6 7 8 9 10 11 12 13 14 15 16 17 18 19 20 21 22 23 24 25 26 27 28 29 30 31 32 33 34 35 36 37 38 39 40 41 42 43 44 45 46 47 48 49 50
000
ASUS44 KFWD 211315
RWRTX
NORTH TEXAS HOURLY WEATHER ROUNDUP
NATIONAL WEATHER SERVICE FORT WORTH TX
800 AM CDT SUN SEP 21 2014

NOTE: "FAIR" INDICATES FEW OR NO CLOUDS BELOW 12,000 FEET WITH NO
SIGNIFICANT WEATHER AND/OR OBSTRUCTIONS TO VISIBILITY.

TXZ118-119-211400-
DALLAS/FORT WORTH METROPLEX

CITY           SKY/WX    TMP DP  RH WIND       PRES   REMARKS
DFW AIRPORT    PTCLDY    72  68  87 N5        30.08R
DALLAS LOVE    CLEAR     73  66  78 CALM      30.08R
FTW MEACHAM    CLEAR     71  64  78 CALM      30.08R
DAL-EXECUTIVE  CLEAR     71  64  78 CALM      30.08R
FTW-ALLIANCE   CLEAR     64  62  93 CALM      30.08R
FTW-NAS-JRB    CLEAR     73  64  73 NW3       30.12R
FTW-SPINKS     CLEAR     64  63  94 CALM      30.10R
ARLINGTON      CLEAR     67  63  87 CALM      30.08R
GRAND PRAIRIE  CLEAR     72  63  73 MISG      30.09R
ADDISON        CLEAR     72  64  78 CALM      30.09R
MESQUITE       CLEAR     66  64  94 CALM      30.07R
LANCASTER      CLEAR     66  62  86 CALM      30.09R
$$

TXZ091>094-102>105-117-120-121-131>134-211400-
NORTH CENTRAL TEXAS

CITY           SKY/WX    TMP DP  RH WIND       PRES   REMARKS
SHRMAN/DENISON CLEAR     68  64  86 CALM      30.10R
GAINESVILLE    CLEAR     67  62  85 CALM      30.11R
BOWIE          CLEAR     65  63  91 CALM      30.11R
BRIDGEPORT     CLEAR     64  64 100 CALM      30.11R
DECATUR        CLEAR     72  63  72 CALM      30.11R
DENTON         CLEAR     65  62  90 NW3       30.09R
MCKINNEY       CLEAR     67  62  84 CALM      30.08R
GREENVILLE     CLEAR     68  64  88 CALM      30.08R
ROCKWALL       CLEAR     70  67  90 CALM      30.07R
TERRELL        CLEAR     69  66  90 VRB3      30.08R
WAXAHACHIE     CLEAR     68  64  86 CALM      30.09R
CLEBURNE         N/A     70  68  94 CALM      30.10R
GRANBURY       CLEAR     67  64  90 CALM      30.10R
$$

TXZ083>090-098>101-113>116-127>130-139>142-154-155-211400-
WESTERN NORTH TEXAS

CITY           SKY/WX    TMP DP  RH WIND       PRES   REMARKS
WICHITA FALLS  CLEAR     70  66  87 S3        30.09R
WF-KICKAPOO    CLEAR     69  65  87 CALM      30.11R
VERNON         CLEAR     71  68  90 CALM      30.11R
ABILENE        CLEAR     70  68  93 SE6       30.13R
ABILENE-DYESS  CLEAR     69  61  76 E1        30.12R
BRECKENRIDGE   CLEAR     71  67  90 CALM      30.11R
GRAHAM         CLEAR     68  64  84 CALM      30.10R
MINERAL WELLS  CLEAR     67  63  87 CALM      30.09R
STEPHENVILLE   CLOUDY    68  64  87 CALM      30.13R
COMANCHE       PTCLDY    68  68 100 CALM      30.11R FOG
BROWNWOOD      MOCLDY    70  68  94 CALM      30.12R
COLEMAN        CLOUDY    71  69  95 CALM      30.12R FOG
BRADY          PTCLDY    70  70 100 E3        30.11R
$$

TXZ143>147-156>162-174-175-211400-
CENTRAL TEXAS

CITY           SKY/WX    TMP DP  RH WIND       PRES   REMARKS
WACO           CLEAR     69  67  93 CALM      30.07R
WACO-TSTC      CLEAR     68  68 100 CALM      30.07R
WACO-MCGREGOR  CLEAR     68  63  83 CALM      30.09R
HILLSBORO      CLEAR     70  65  83 CALM      30.08R
CORSICANA      CLEAR     69  66  90 N5        30.08R
MEXIA          CLEAR     70  68  93 CALM      30.07R
HEARNE         CLEAR     69  68  97 CALM      30.06R
CAMERON        CLEAR     71  69  96 CALM      30.07R
TEMPLE         CLEAR     70  64  83 N5        30.07R
KILLEEN        MOCLDY    73  70  88 CALM      30.08R
KILLEEN-SKYLRK MOCLDY    72  64  78 CALM      30.08R
FORT HOOD      MOCLDY    75  71  87 CALM      30.08R
GATESVILLE     CLEAR     70  66  88 CALM      30.11R
HAMILTON       PTCLDY    71  70  98 W3        30.11R
LAMPASAS       PTCLDY    71  69  94 CALM      30.09R
$$

TXZ095>097-106>112-122>126-135>138-148>153-164>167-211400-
EAST TEXAS

CITY           SKY/WX    TMP DP  RH WIND       PRES   REMARKS
PARIS          CLEAR     70  63  78 N3        30.08R
SULPHUR SPRNGS CLEAR     69  67  93 CALM      30.10R
MOUNT PLEASANT SUNNY     68  67  99 CALM      30.08R
GILMER         SUNNY     70  68  94 CALM      30.08R
MINEOLA        CLEAR     66  66 100 CALM      30.08R
TYLER          CLEAR     71  66  84 CALM      30.07R
LONGVIEW       SUNNY     69  66  90 CALM      30.06R
MARSHALL       SUNNY     71  67  89 CALM      30.08R
ATHENS         CLEAR     66  63  88 CALM      30.07R
PALESTINE      CLEAR     67  67  98 CALM      30.08R
JACKSONVILLE   SUNNY     72  68  88 CALM      30.09R
HENDERSON      SUNNY     66  66 100 CALM      30.08R
NACOGDOCHES    SUNNY     64  63  94 CALM      30.06R
LUFKIN         SUNNY     71  67  87 CALM      30.05R FOG
$$

SUPPLEMENTAL OBSERVATIONS (CENTRAL)

CITY           SKY/WX    TMP DP  RH WIND       PRES   REMARKS
LAKE TEXOMA      N/A     73  64  73 SW2         N/A
CADDO GRASSLND   N/A     66  63  88 CALM        N/A
PAT MAYSE LAKE   N/A     68  66  94 N2          N/A
GREENVILLE       N/A     70  66  88 CALM        N/A
CEDAR HILL       N/A     68  63  83 CALM        N/A
PALESTINE        N/A     68  66  94 CALM        N/A
MCGREGOR         N/A     70  66  88 CALM        N/A
TEMPLE           N/A     73  68  83 CALM        N/A
$$

SUPPLEMENTAL OBSERVATIONS (WEST)

CITY           SKY/WX    TMP DP  RH WIND       PRES   REMARKS
MILLERS CREEK    N/A     72  66  83 CALM        N/A
POSSUM KINGDOM   N/A     72  66  83 SE5         N/A
LBJ GRASSLAND    N/A     70  63  78 CALM        N/A
GRANBURY         N/A     66  61  82 W1          N/A
HAMBY            N/A     70  66  88 E3          N/A
IVIE RESERVOIR   N/A     72  68  88 E5          N/A
COLORADO BEND    N/A     68  64  88 CALM        N/A
$$

SUPPLEMENTAL OBSERVATIONS (EAST)

CITY           SKY/WX    TMP DP  RH WIND       PRES   REMARKS
CLARKSVILLE      N/A     72  68  88 N1          N/A
CADDO LAKE       N/A     66  64  94 CALM        N/A
GILMER           N/A     70  64  83 CALM        N/A
HENDERSON        N/A     68  63  83 CALM        N/A
LUFKIN           N/A     70  66  88 MISG        N/A
N SABINE NF      N/A     64  63  94 MISG        N/A
$$

SUPPLEMENTAL OBSERVATIONS ARE A COLLECTION OF AUTOMATED INSTRUMENTS
THAT ARE MAINTAINED BY A VARIETY OF FEDERAL AND STATE AGENCIES.
CERTAIN ELEMENTS...SUCH AS HUMIDITY VALUES AND SUSTAINED WIND
SPEEDS...MAY BE APPROXIMATED.



USA.gov is the U.S. government's official web portal to all federal, state and local government web resources and services.